Location: Newark
(35.8833°N, 14.5000°E)
Time: 03:26:11
(UTC+00:00)

AO-91 - Visible Passes

Search period start: 21 May 2019 00:00
Search period end: 31 May 2019 00:00
Orbit: 454 x 814 km, 97.7° (Epoch: 20 May)

Date Brightness Start Highest point End Pass type
(mag) Time Alt. Az. Time Alt. Az. Time Alt. Az.
21 May ? 22:39:37 10° NE 22:40:35 13° ENE 22:40:35 13° ENE visible
22 May ? 00:15:01 10° N 00:18:02 30° NNW 00:18:02 30° NNW visible
22 May ? 23:00:28 10° NNE 23:02:25 20° NE 23:02:25 20° NE visible
23 May ? 00:37:10 10° NNW 00:39:52 21° NW 00:39:52 21° NW visible
23 May ? 23:21:43 10° NNE 23:24:14 29° NE 23:24:14 29° NE visible
24 May ? 00:59:57 10° NW 01:01:41 13° WNW 01:01:41 13° WNW visible
24 May ? 23:43:15 10° N 23:46:03 35° N 23:46:03 35° N visible
26 May ? 00:05:01 10° N 00:07:51 32° NNW 00:07:51 32° NNW visible
26 May ? 22:50:54 10° NE 22:52:12 16° NE 22:52:12 16° NE visible
27 May ? 00:27:01 10° NNW 00:29:40 23° NW 00:29:40 23° NW visible
27 May ? 23:11:57 10° NNE 23:14:00 23° NE 23:14:00 23° NE visible
28 May ? 00:49:31 10° NNW 00:51:27 15° NW 00:51:27 15° NW visible
28 May ? 23:33:21 10° NNE 23:35:48 31° NNE 23:35:48 31° NNE visible
29 May ? 23:55:00 10° N 23:57:35 32° N 23:57:35 32° N visible
30 May ? 22:41:29 10° NE 22:41:55 12° NE 22:41:55 12° NE visible
